• Processing (Info)

  • MPEC 2019-V79 : 2019 VV2

    The following Minor Planet Electronic Circular may be linked-to from your own Web pages, but must not otherwise be redistributed electronically.

    A form allowing access to any MPEC is at the bottom of this page.


    Read MPEC 2019-V78 Read MPEC 2019-V80


    M.P.E.C. 2019-V79                              Issued 2019 November 6, 21:25 UT
    
         The Minor Planet Electronic Circulars contain information on unusual
             minor planets and routine data on comets.  They are published
        on behalf of Division F of the International Astronomical Union by the
              Minor Planet Center, Smithsonian Astrophysical Observatory,
                              Cambridge, MA 02138, U.S.A.
    
                 Prepared using the Tamkin Foundation Computer Network
    
                                  MPC@CFA.HARVARD.EDU
                URL https://www.minorplanetcenter.net/    ISSN 1523-6714
    
                                    2019 VV2                                 
    
    
    Observations:
         K19V02V  C2019 10 08.36237102 16 09.680+33 26 47.56         22.9 GVEV079F51
         K19V02V  C2019 10 08.37418002 16 11.165+33 26 32.67         22.0 GVEV079F51
         K19V02V  C2019 10 24.54409402 57 32.715+22 11 46.33         21.3 GVEV079F51
         K19V02V  C2019 10 24.54473502 57 32.810+22 11 43.61         21.5 GVEV079F51
         K19V02V  C2019 10 24.55637702 57 34.391+22 10 58.54         21.4 GVEV079F51
         K19V02V  C2019 10 24.56933902 57 36.116+22 10 09.03         20.8 GVEV079F51
         K19V02V  C2019 10 24.58171102 57 37.874+22 09 20.33         21.1 GVEV079F51
         K19V02V  C2019 10 31.49929903 16 09.866+13 49 48.61         20.9 GVEV079F52
         K19V02V  C2019 10 31.51050003 16 11.344+13 48 53.96         21.0 GVEV079F52
         K19V02V  C2019 10 31.52174303 16 12.806+13 47 59.59         21.1 GVEV079F52
         K19V02V  C2019 10 31.53279103 16 14.255+13 47 05.69         21.4 GVEV079F52
         K19V02V  C2019 11 04.51085503 26 47.136+08 14 28.05         21.1 GVEV079F51
         K19V02V  C2019 11 04.52192203 26 48.579+08 13 29.90         21.0 GVEV079F51
         K19V02V  C2019 11 04.53290003 26 49.998+08 12 32.27         20.9 GVEV079F51
         K19V02V* C2019 11 05.56095603 29 30.884+06 43 21.68         21.53wUEV079F51
         K19V02V  C2019 11 05.57311503 29 32.497+06 42 17.69         21.30wUEV079F51
         K19V02V  C2019 11 05.59746103 29 35.794+06 40 09.15         21.00wUEV079F51
    
    Observer details:
    F51 Pan-STARRS 1, Haleakala.  Observers J. Bulger, K. Chambers, T. Lowe, E. 
       Magnier, A. Schultz, M. Willman.  Measurers S. Chastel, M. Huber, Y. 
       Ramanjooloo, R. Wainscoat, R. Weryk, K. Chambers, T. de Boer, L. Denneau, J. 
       Fairlamb, H. Flewelling, C.-C. Lin, E. Magnier.  1.8-m Ritchey-Chretien + 
       CCD.
    F52 Pan-STARRS 2, Haleakala.  Observers J. Bulger, K. Chambers, T. Dukes, T. 
       Lowe, E. Magnier, A. Schultz, M. Willman.  Measurers S. Chastel, M. Huber, 
       Y. Ramanjooloo, R. Wainscoat, R. Weryk.  1.8-m Ritchey-Chretien + CCD.
    
    Orbital elements:
    2019 VV2                                                 Earth MOID = 0.1102 AU
    Epoch 2019 Apr. 27.0 TT = JDT 2458600.5                 Bell
    M 226.94911              (2000.0)            P               Q
    n   0.61215411     Peri.  210.97028     +0.39246107     -0.91475914
    a   1.3737115      Node   216.17299     +0.87362622     +0.40333990
    e   0.2107148      Incl.    9.34741     +0.28766566     +0.02307901
    P   1.61           H   24.9           G   0.15           U   5
    Residuals in seconds of arc
    191008 F51  0.1+  0.0     191024 F51  0.2+  0.1-    191104 F51  0.1+  0.3-
    191008 F51  0.0   0.0     191031 F52  0.1+  0.2+    191104 F51  0.1+  0.7-
    191024 F51  0.0   0.1+    191031 F52  0.3+  0.1-    191105 F51  0.0   0.3+
    191024 F51  0.1+  0.2-    191031 F52  0.0   0.1+    191105 F51  0.0   0.3+
    191024 F51  0.1+  0.2-    191031 F52  0.1-  0.1-    191105 F51  0.0   0.0
    191024 F51  0.5-  0.5+    191104 F51  0.1-  0.3+
    
    Ephemeris:
    2019 VV2                 a,e,i = 1.37, 0.21, 9                   q = 1.0843
    Date    TT    R. A. (2000) Decl.     Delta      r    Elong.  Phase     V
    2019 10 07    02 12 52.9 +33 55 58   0.1844  1.1559   145.2    29.6    22.8
    ...
    2019 10 22    02 50 48.0 +24 43 23   0.1359  1.1233   158.9    18.6    21.8
    ...
    2019 10 30    03 12 10.7 +15 48 01   0.1193  1.1094   165.9    12.6    21.3
    ...
    2019 11 05    03 28 05.7 +07 32 31   0.1123  1.1008   165.5    13.1    21.1
    2019 11 06    03 30 42.5 +06 05 27   0.1116  1.0995   164.7    13.8    21.1
    2019 11 07    03 33 18.4 +04 37 49   0.1111  1.0983   163.8    14.6    21.2
    ...
    2019 11 13    03 48 26.1 -04 03 41   0.1107  1.0919   156.3    21.4    21.4
    ...
    2019 11 21    04 06 51.0 -14 17 02   0.1168  1.0863   145.5    31.0    21.7
    ...
    2019 12 06    04 35 02.9 -26 01 00   0.1421  1.0848   131.5    42.9    22.5
    
    A. U. Tomatic                (C) Copyright 2019 MPC           M.P.E.C. 2019-V79
    


    Read MPEC 2019-V78 Read MPEC 2019-V80


    MPEC number:

    Enter an MPEC number in one of the following forms:

    • 1997-B01 (the full form)
    • J97B01 (the packed version of the full form)
    • B01 (the abbreviated form)